Time,TemperatureF,DewpointF,PressureIn,WindDirection,WindDirectionDegrees,WindSpeedMPH,WindSpeedGustMPH,Humidity,HourlyPrecipIn,Conditions,Clouds,dailyrainin,SoftwareType,DateUTC
2013-02-26 00:14:00,20.2,18.0,30.12,East,82,8.0,-999.0,92,-99.99,,,0.00,weatherlink.com 1.10,2013-02-26 05:14:00,
2013-02-26 00:29:00,20.2,18.0,30.12,ENE,75,9.0,-999.0,91,-99.99,,,0.00,weatherlink.com 1.10,2013-02-26 05:29:00,
2013-02-26 00:44:00,20.7,19.0,30.13,ENE,61,7.0,-999.0,91,-99.99,,,0.00,weatherlink.com 1.10,2013-02-26 05:44:00,
2013-02-26 00:59:00,20.8,19.0,30.13,ENE,72,11.0,-999.0,91,-99.99,,,0.00,weatherlink.com 1.10,2013-02-26 05:59:00,
2013-02-26 01:14:00,21.6,19.0,30.14,ESE,109,5.0,-999.0,91,-99.99,,,0.00,weatherlink.com 1.10,2013-02-26 06:14:00,
2013-02-26 01:29:00,21.9,20.0,30.13,East,88,1.0,-999.0,90,-99.99,,,0.00,weatherlink.com 1.10,2013-02-26 06:29:00,
2013-02-26 01:44:00,21.9,20.0,30.13,East,81,4.0,-999.0,90,-99.99,,,0.00,weatherlink.com 1.10,2013-02-26 06:44:00,
2013-02-26 01:59:00,22.3,20.0,30.13,ENE,76,9.0,-999.0,90,-99.99,,,0.00,weatherlink.com 1.10,2013-02-26 06:59:00,
2013-02-26 02:14:00,22.8,20.0,30.11,NE,38,0.0,-999.0,90,-99.99,,,0.00,weatherlink.com 1.10,2013-02-26 07:14:00,
2013-02-26 02:29:00,23.5,21.0,30.11,NE,56,0.0,-999.0,89,-99.99,,,0.00,weatherlink.com 1.10,2013-02-26 07:29:00,
2013-02-26 02:44:00,24.3,21.0,30.10,ENE,65,6.0,-999.0,87,-99.99,,,0.00,weatherlink.com 1.10,2013-02-26 07:44:00,
2013-02-26 02:59:00,23.4,20.0,30.09,East,81,3.0,-999.0,85,-99.99,,,0.00,weatherlink.com 1.10,2013-02-26 07:59:00,
2013-02-26 03:15:00,22.7,19.0,30.08,East,92,7.0,-999.0,86,-99.99,,,0.00,weatherlink.com 1.10,2013-02-26 08:15:00,
2013-02-26 03:30:00,22.4,19.0,30.06,NE,55,7.0,-999.0,86,-99.99,,,0.00,weatherlink.com 1.10,2013-02-26 08:30:00,
2013-02-26 03:45:00,22.3,19.0,30.06,ESE,117,11.0,-999.0,87,-99.99,,,0.00,weatherlink.com 1.10,2013-02-26 08:45:00,
2013-02-26 04:00:00,22.5,19.0,30.06,ESE,109,8.0,-999.0,86,-99.99,,,0.00,weatherlink.com 1.10,2013-02-26 09:00:00,
2013-02-26 04:15:00,22.5,19.0,30.06,SSE,160,10.0,-999.0,87,-99.99,,,0.00,weatherlink.com 1.10,2013-02-26 09:15:00,
2013-02-26 04:30:00,21.8,19.0,30.05,SE,130,9.0,-999.0,87,-99.99,,,0.00,weatherlink.com 1.10,2013-02-26 09:30:00,
2013-02-26 04:45:00,21.3,18.0,30.06,ESE,113,12.0,-999.0,87,-99.99,,,0.00,weatherlink.com 1.10,2013-02-26 09:45:00,
2013-02-26 05:00:00,22.2,19.0,30.05,East,80,10.0,-999.0,87,-99.99,,,0.00,weatherlink.com 1.10,2013-02-26 10:00:00,
2013-02-26 05:15:00,23.8,19.0,30.05,ENE,59,8.0,-999.0,82,-99.99,,,0.00,weatherlink.com 1.10,2013-02-26 10:15:00,
2013-02-26 05:30:00,23.3,18.0,30.05,SE,146,8.0,-999.0,81,-99.99,,,0.00,weatherlink.com 1.10,2013-02-26 10:30:00,
2013-02-26 05:45:00,22.6,17.0,30.05,ENE,67,7.0,-999.0,80,-99.99,,,0.00,weatherlink.com 1.10,2013-02-26 10:45:00,
2013-02-26 06:00:00,22.4,17.0,30.04,ESE,123,10.0,-999.0,78,-99.99,,,0.00,weatherlink.com 1.10,2013-02-26 11:00:00,
2013-02-26 06:15:00,22.0,17.0,30.04,East,80,7.0,-999.0,80,-99.99,,,0.00,weatherlink.com 1.10,2013-02-26 11:15:00,
2013-02-26 06:30:00,22.4,17.0,30.03,ENE,78,14.0,-999.0,79,-99.99,,,0.00,weatherlink.com 1.10,2013-02-26 11:30:00,
2013-02-26 06:45:00,22.5,17.0,30.03,ENE,63,10.0,-999.0,80,-99.99,,,0.00,weatherlink.com 1.10,2013-02-26 11:45:00,
2013-02-26 07:00:00,22.1,17.0,30.01,East,88,16.0,-999.0,82,-99.99,,,0.00,weatherlink.com 1.10,2013-02-26 12:00:00,
2013-02-26 07:15:00,22.8,18.0,30.01,ENE,60,18.0,-999.0,82,-99.99,,,0.00,weatherlink.com 1.10,2013-02-26 12:15:00,
2013-02-26 07:30:00,22.5,18.0,30.02,East,98,18.0,-999.0,81,-99.99,,,0.00,weatherlink.com 1.10,2013-02-26 12:30:00,
2013-02-26 07:45:00,23.1,18.0,30.02,ESE,102,6.0,-999.0,80,-99.99,,,0.00,weatherlink.com 1.10,2013-02-26 12:45:00,
2013-02-26 08:00:00,22.9,18.0,30.01,East,82,15.0,-999.0,80,-99.99,,,0.00,weatherlink.com 1.10,2013-02-26 13:00:00,
2013-02-26 08:15:00,23.0,18.0,30.01,ENE,63,11.0,-999.0,81,-99.99,,,0.00,weatherlink.com 1.10,2013-02-26 13:15:00,
2013-02-26 08:30:00,22.7,18.0,30.01,East,82,25.0,-999.0,83,-99.99,,,0.00,weatherlink.com 1.10,2013-02-26 13:30:00,
2013-02-26 08:45:00,23.7,19.0,30.00,ENE,65,1.0,-999.0,82,-99.99,,,0.00,weatherlink.com 1.10,2013-02-26 13:45:00,
2013-02-26 09:00:00,23.6,20.0,30.01,ENE,71,1.0,-999.0,87,-99.99,,,0.00,weatherlink.com 1.10,2013-02-26 14:00:00,
2013-02-26 09:15:00,23.2,20.0,29.98,East,86,4.0,-999.0,87,-99.99,,,0.00,weatherlink.com 1.10,2013-02-26 14:15:00,
2013-02-26 09:30:00,23.0,20.0,29.98,NNE,31,1.0,-999.0,88,-99.99,,,0.00,weatherlink.com 1.10,2013-02-26 14:30:00,
2013-02-26 09:45:00,22.9,20.0,29.96,NE,50,1.0,-999.0,89,-99.99,,,0.00,weatherlink.com 1.10,2013-02-26 14:45:00,
2013-02-26 10:00:00,23.0,21.0,29.95,West,278,2.0,-999.0,90,-99.99,,,0.00,weatherlink.com 1.10,2013-02-26 15:00:00,
2013-02-26 10:15:00,22.8,20.0,29.95,SSW,192,6.0,-999.0,90,-99.99,,,0.00,weatherlink.com 1.10,2013-02-26 15:15:00,
2013-02-26 10:30:00,23.2,21.0,29.95,WNW,292,0.0,-999.0,92,-99.99,,,0.00,weatherlink.com 1.10,2013-02-26 15:30:00,
2013-02-26 10:45:00,23.8,22.0,29.94,North,351,1.0,-999.0,93,-99.99,,,0.00,weatherlink.com 1.10,2013-02-26 15:45:00,
2013-02-26 11:00:00,24.5,23.0,29.93,East,88,3.0,-999.0,94,-99.99,,,0.01,weatherlink.com 1.10,2013-02-26 16:00:00,
2013-02-26 11:15:00,25.3,24.0,29.93,NNE,27,4.0,-999.0,94,-99.99,,,0.01,weatherlink.com 1.10,2013-02-26 16:15:00,
2013-02-26 11:30:00,25.4,24.0,29.93,NW,310,4.0,-999.0,94,-99.99,,,0.01,weatherlink.com 1.10,2013-02-26 16:30:00,
2013-02-26 11:45:00,26.0,25.0,29.90,NW,316,3.0,-999.0,95,-99.99,,,0.01,weatherlink.com 1.10,2013-02-26 16:45:00,
2013-02-26 12:00:00,25.8,25.0,29.87,NW,314,5.0,-999.0,95,-99.99,,,0.01,weatherlink.com 1.10,2013-02-26 17:00:00,
2013-02-26 12:15:00,25.9,25.0,29.84,NW,310,5.0,-999.0,95,-99.99,,,0.01,weatherlink.com 1.10,2013-02-26 17:15:00,
2013-02-26 12:30:00,26.5,25.0,29.83,WNW,303,1.0,-999.0,95,-99.99,,,0.01,weatherlink.com 1.10,2013-02-26 17:30:00,
2013-02-26 12:46:00,27.1,26.0,29.82,ESE,102,5.0,-999.0,95,-99.99,,,0.01,weatherlink.com 1.10,2013-02-26 17:46:00,
2013-02-26 13:01:00,26.9,26.0,29.80,NW,304,5.0,-999.0,95,-99.99,,,0.01,weatherlink.com 1.10,2013-02-26 18:01:00,
2013-02-26 13:19:00,27.2,26.0,29.79,NW,316,5.0,-999.0,95,-99.99,,,0.01,weatherlink.com 1.10,2013-02-26 18:19:00,
2013-02-26 13:31:00,27.5,27.0,29.78,NW,312,6.0,-999.0,96,-99.99,,,0.01,weatherlink.com 1.10,2013-02-26 18:31:00,
2013-02-26 13:46:00,27.8,27.0,29.78,West,271,4.0,-999.0,96,-99.99,,,0.01,weatherlink.com 1.10,2013-02-26 18:46:00,
2013-02-26 14:01:00,28.1,27.0,29.77,NW,306,4.0,-999.0,96,-99.99,,,0.01,weatherlink.com 1.10,2013-02-26 19:01:00,
2013-02-26 14:16:00,28.6,28.0,29.77,West,276,4.0,-999.0,96,-99.99,,,0.01,weatherlink.com 1.10,2013-02-26 19:16:00,
2013-02-26 14:31:00,29.4,28.0,29.74,West,272,7.0,-999.0,96,-99.99,,,0.01,weatherlink.com 1.10,2013-02-26 19:31:00,
2013-02-26 14:46:00,29.9,29.0,29.73,WNW,283,4.0,-999.0,96,-99.99,,,0.01,weatherlink.com 1.10,2013-02-26 19:46:00,
2013-02-26 15:01:00,30.2,29.0,29.72,NW,304,4.0,-999.0,96,-99.99,,,0.01,weatherlink.com 1.10,2013-02-26 20:01:00,
2013-02-26 15:16:00,30.6,30.0,29.72,SW,234,8.0,-999.0,97,-99.99,,,0.01,weatherlink.com 1.10,2013-02-26 20:16:00,
2013-02-26 15:31:00,31.1,30.0,29.70,WNW,288,5.0,-999.0,97,-99.99,,,0.01,weatherlink.com 1.10,2013-02-26 20:31:00,
2013-02-26 15:46:00,31.9,31.0,29.69,NW,310,4.0,-999.0,97,-99.99,,,0.01,weatherlink.com 1.10,2013-02-26 20:46:00,
2013-02-26 16:01:00,31.7,31.0,29.68,WNW,303,4.0,-999.0,97,-99.99,,,0.01,weatherlink.com 1.10,2013-02-26 21:01:00,
2013-02-26 16:16:00,31.5,24.0,29.66,ESE,109,0.0,-999.0,75,-99.99,,,0.01,weatherlink.com 1.10,2013-02-26 21:16:00,
2013-02-26 16:34:00,31.5,24.0,29.65,ESE,109,0.0,-999.0,75,-99.99,,,0.01,weatherlink.com 1.10,2013-02-26 21:34:00,
2013-02-26 16:46:00,32.0,25.0,29.64,ESE,109,0.0,-999.0,74,-99.99,,,0.01,weatherlink.com 1.10,2013-02-26 21:46:00,
2013-02-26 17:01:00,32.0,25.0,29.65,ESE,109,0.0,-999.0,74,-99.99,,,0.01,weatherlink.com 1.10,2013-02-26 22:01:00,
2013-02-26 17:16:00,32.0,25.0,29.64,ESE,109,0.0,-999.0,74,-99.99,,,0.01,weatherlink.com 1.10,2013-02-26 22:16:00,
2013-02-26 17:31:00,31.9,25.0,29.69,ESE,109,0.0,-999.0,74,-99.99,,,0.01,weatherlink.com 1.10,2013-02-26 22:31:00,
2013-02-26 17:46:00,31.6,24.0,29.69,ESE,109,0.0,-999.0,74,-99.99,,,0.01,weatherlink.com 1.10,2013-02-26 22:46:00,
2013-02-26 18:01:00,31.5,24.0,29.68,ESE,109,0.0,-999.0,74,-99.99,,,0.01,weatherlink.com 1.10,2013-02-26 23:01:00,
2013-02-26 18:16:00,31.4,24.0,29.72,ESE,109,0.0,-999.0,74,-99.99,,,0.01,weatherlink.com 1.10,2013-02-26 23:16:00,
2013-02-26 18:31:00,31.3,24.0,29.70,ESE,109,0.0,-999.0,74,-99.99,,,0.01,weatherlink.com 1.10,2013-02-26 23:31:00,
2013-02-26 18:46:00,31.5,24.0,29.73,ESE,108,0.0,-999.0,74,-99.99,,,0.01,weatherlink.com 1.10,2013-02-26 23:46:00,
2013-02-26 19:01:00,31.5,24.0,29.70,ESE,109,0.0,-999.0,73,-99.99,,,0.01,weatherlink.com 1.10,2013-02-27 00:01:00,
2013-02-26 19:16:00,31.7,24.0,29.70,ESE,109,0.0,-999.0,73,-99.99,,,0.01,weatherlink.com 1.10,2013-02-27 00:16:00,
2013-02-26 19:31:00,31.6,24.0,29.69,ESE,109,0.0,-999.0,73,-99.99,,,0.01,weatherlink.com 1.10,2013-02-27 00:31:00,
2013-02-26 19:46:00,31.9,24.0,29.68,ESE,109,0.0,-999.0,73,-99.99,,,0.01,weatherlink.com 1.10,2013-02-27 00:46:00,
2013-02-26 20:01:00,32.0,24.0,29.69,ESE,109,0.0,-999.0,73,-99.99,,,0.01,weatherlink.com 1.10,2013-02-27 01:01:00,
2013-02-26 20:16:00,32.1,24.0,29.70,ESE,109,0.0,-999.0,73,-99.99,,,0.01,weatherlink.com 1.10,2013-02-27 01:16:00,
2013-02-26 20:31:00,32.2,24.0,29.70,ESE,109,0.0,-999.0,72,-99.99,,,0.01,weatherlink.com 1.10,2013-02-27 01:31:00,
2013-02-26 20:46:00,32.3,24.0,29.71,ESE,109,0.0,-999.0,72,-99.99,,,0.01,weatherlink.com 1.10,2013-02-27 01:46:00,
2013-02-26 21:01:00,32.4,24.0,29.72,ESE,109,0.0,-999.0,72,-99.99,,,0.01,weatherlink.com 1.10,2013-02-27 02:01:00,
2013-02-26 21:16:00,32.4,24.0,29.71,ESE,109,0.0,-999.0,72,-99.99,,,0.01,weatherlink.com 1.10,2013-02-27 02:16:00,
2013-02-26 21:31:00,32.5,24.0,29.71,ESE,109,0.0,-999.0,72,-99.99,,,0.01,weatherlink.com 1.10,2013-02-27 02:31:00,
2013-02-26 21:46:00,32.5,24.0,29.70,ESE,109,0.0,-999.0,72,-99.99,,,0.01,weatherlink.com 1.10,2013-02-27 02:46:00,
2013-02-26 22:01:00,32.6,24.0,29.70,ESE,109,0.0,-999.0,72,-99.99,,,0.01,weatherlink.com 1.10,2013-02-27 03:01:00,
2013-02-26 22:16:00,32.7,25.0,29.69,ESE,109,0.0,-999.0,72,-99.99,,,0.01,weatherlink.com 1.10,2013-02-27 03:16:00,
2013-02-26 22:31:00,33.3,25.0,29.69,ESE,109,0.0,-999.0,72,-99.99,,,0.01,weatherlink.com 1.10,2013-02-27 03:31:00,
2013-02-26 22:46:00,33.4,25.0,29.68,ESE,109,0.0,-999.0,71,-99.99,,,0.01,weatherlink.com 1.10,2013-02-27 03:46:00,
2013-02-26 23:01:00,33.5,25.0,29.68,ESE,109,0.0,-999.0,71,-99.99,,,0.01,weatherlink.com 1.10,2013-02-27 04:01:00,
2013-02-26 23:16:00,34.0,26.0,29.68,ESE,109,0.0,-999.0,71,-99.99,,,0.01,weatherlink.com 1.10,2013-02-27 04:16:00,
2013-02-26 23:31:00,34.0,26.0,29.66,ESE,109,0.0,-999.0,71,-99.99,,,0.02,weatherlink.com 1.10,2013-02-27 04:31:00,
2013-02-26 23:46:00,33.8,25.0,29.66,ESE,109,0.0,-999.0,71,-99.99,,,0.02,weatherlink.com 1.10,2013-02-27 04:46:00,